SVA612 OEGS-OERK

Flight info

Callsign SVA612
Flight time 0h 36m
Altitude 29000
Route GAS G662 SIVIS
Aircraft A320/M-SDE3FGHIRWY/LB1

Departure

Time 2026-04-20 17:57
Airport Prince Naif bin Abdulaziz International Airport (OEGS)

Arrival

Time 2026-04-20 18:33
Airport King Khalid International Airport (OERK)
Time Latitude Longitude Altitude Speed Heading
2026-04-20 17:26 26.30515 43.76926 2141 ft 0 kts 243°
2026-04-20 17:45 26.30518 43.76933 2140 ft 2 kts 242°
2026-04-20 17:45 26.30525 43.76947 2140 ft 2 kts 242°
2026-04-20 17:45 26.30532 43.76962 2140 ft 2 kts 241°
2026-04-20 17:46 26.30539 43.76977 2140 ft 1 kts 242°
2026-04-20 17:46 26.30545 43.76989 2140 ft 2 kts 221°
2026-04-20 17:46 26.30558 43.76997 2140 ft 2 kts 191°
2026-04-20 17:46 26.30573 43.76997 2140 ft 1 kts 160°
2026-04-20 17:47 26.30583 43.76991 2140 ft 1 kts 147°
2026-04-20 17:47 26.30588 43.76987 2140 ft 0 kts 153°
2026-04-20 17:47 26.30589 43.76987 2140 ft 0 kts 153°
2026-04-20 17:49 26.30590 43.76987 2140 ft 0 kts 153°
2026-04-20 17:49 26.30589 43.76987 2140 ft 0 kts 153°
2026-04-20 17:49 26.30586 43.76989 2140 ft 0 kts 153°
2026-04-20 17:50 26.30544 43.77013 2140 ft 2 kts 154°
2026-04-20 17:50 26.30543 43.77013 2139 ft 0 kts 154°
2026-04-20 17:51 26.30532 43.77020 2139 ft 7 kts 154°
2026-04-20 17:51 26.30458 43.77065 2138 ft 14 kts 152°
2026-04-20 17:52 26.30355 43.77121 2136 ft 18 kts 155°
2026-04-20 17:52 26.30228 43.77191 2134 ft 21 kts 155°
2026-04-20 17:52 26.30084 43.77276 2132 ft 24 kts 153°
2026-04-20 17:52 26.29922 43.77366 2131 ft 27 kts 153°
2026-04-20 17:53 26.29841 43.77413 2131 ft 0 kts 152°
2026-04-20 17:54 26.29840 43.77414 2131 ft 1 kts 152°
2026-04-20 17:54 26.29804 43.77435 2131 ft 10 kts 149°
2026-04-20 17:54 26.29723 43.77481 2132 ft 15 kts 154°
2026-04-20 17:54 26.29616 43.77541 2133 ft 18 kts 153°
2026-04-20 17:55 26.29493 43.77611 2134 ft 23 kts 153°
2026-04-20 17:55 26.29339 43.77697 2134 ft 25 kts 153°
2026-04-20 17:55 26.29174 43.77793 2133 ft 25 kts 153°
2026-04-20 17:55 26.29084 43.77869 2132 ft 17 kts 120°
2026-04-20 17:56 26.29053 43.77998 2128 ft 16 kts 88°
2026-04-20 17:56 26.29129 43.78078 2127 ft 18 kts 334°
2026-04-20 17:56 26.29209 43.78028 2127 ft 15 kts 333°
2026-04-20 17:56 26.29472 43.77877 2128 ft 74 kts 331°
2026-04-20 17:57 26.30107 43.77513 2128 ft 130 kts 332°
2026-04-20 17:57 26.31040 43.76988 2267 ft 160 kts 333°
2026-04-20 17:57 26.31999 43.76438 2872 ft 155 kts 330°
2026-04-20 17:57 26.32955 43.75860 3349 ft 160 kts 336°
2026-04-20 17:58 26.34057 43.75707 3832 ft 163 kts 11°
2026-04-20 17:58 26.35149 43.76100 4165 ft 171 kts 26°
2026-04-20 17:58 26.35957 43.77089 4431 ft 182 kts 78°
2026-04-20 17:58 26.35796 43.78469 4765 ft 183 kts 124°
2026-04-20 17:59 26.35077 43.79677 5069 ft 195 kts 126°
2026-04-20 17:59 26.34320 43.80988 5345 ft 210 kts 125°
2026-04-20 17:59 26.33522 43.82431 5633 ft 225 kts 124°
2026-04-20 17:59 26.32690 43.83978 5893 ft 243 kts 124°
2026-04-20 18:00 26.31801 43.85662 6215 ft 260 kts 124°
2026-04-20 18:00 26.30856 43.87471 6532 ft 278 kts 123°
2026-04-20 18:00 26.29862 43.89379 6890 ft 293 kts 124°
2026-04-20 18:00 26.28830 43.91366 7476 ft 298 kts 123°
2026-04-20 18:01 26.27797 43.93356 8096 ft 302 kts 124°
2026-04-20 18:01 26.26740 43.95389 8699 ft 305 kts 125°
2026-04-20 18:01 26.25676 43.97438 9230 ft 310 kts 125°
2026-04-20 18:01 26.24579 43.99530 9759 ft 315 kts 125°
2026-04-20 18:02 26.23443 44.01687 10088 ft 328 kts 126°
2026-04-20 18:02 26.22261 44.03930 10345 ft 343 kts 125°
2026-04-20 18:02 26.21039 44.06254 10591 ft 357 kts 125°
2026-04-20 18:02 26.19751 44.08696 10832 ft 371 kts 125°
2026-04-20 18:03 26.18433 44.11200 11079 ft 384 kts 126°
2026-04-20 18:03 26.17071 44.13797 11528 ft 389 kts 125°
2026-04-20 18:03 26.15710 44.16389 12021 ft 393 kts 126°
2026-04-20 18:03 26.14330 44.19016 12508 ft 396 kts 126°
2026-04-20 18:04 26.12919 44.21692 12987 ft 400 kts 126°
2026-04-20 18:04 26.11516 44.24352 13427 ft 404 kts 126°
2026-04-20 18:04 26.10082 44.27074 13898 ft 407 kts 126°
2026-04-20 18:04 26.08653 44.29781 14297 ft 411 kts 126°
2026-04-20 18:05 26.05718 44.35330 15015 ft 420 kts 126°
2026-04-20 18:05 26.04229 44.38145 15481 ft 421 kts 126°
2026-04-20 18:05 26.02753 44.40934 15884 ft 423 kts 126°
2026-04-20 18:06 26.01263 44.43750 16249 ft 426 kts 126°
2026-04-20 18:06 25.99751 44.46605 16692 ft 427 kts 126°
2026-04-20 18:06 25.98243 44.49453 17107 ft 427 kts 126°
2026-04-20 18:06 25.96736 44.52296 17460 ft 430 kts 126°
2026-04-20 18:07 25.95226 44.55145 17816 ft 432 kts 126°
2026-04-20 18:07 25.93691 44.58036 18170 ft 434 kts 126°
2026-04-20 18:07 25.92154 44.60923 18510 ft 435 kts 126°
2026-04-20 18:07 25.90608 44.63826 18820 ft 438 kts 126°
2026-04-20 18:08 25.89041 44.66762 19169 ft 439 kts 126°
2026-04-20 18:08 25.87489 44.69668 19583 ft 438 kts 126°
2026-04-20 18:08 25.85946 44.72607 20063 ft 436 kts 124°
2026-04-20 18:08 25.84527 44.75556 20495 ft 435 kts 123°
2026-04-20 18:09 25.83122 44.78549 20878 ft 434 kts 123°
2026-04-20 18:09 25.81748 44.81494 21248 ft 433 kts 123°
2026-04-20 18:09 25.80363 44.84459 21545 ft 434 kts 123°
2026-04-20 18:09 25.78975 44.87423 21924 ft 433 kts 123°
2026-04-20 18:10 25.77597 44.90365 22361 ft 429 kts 123°
2026-04-20 18:10 25.76224 44.93286 22715 ft 428 kts 123°
2026-04-20 18:10 25.74843 44.96222 23015 ft 428 kts 123°
2026-04-20 18:10 25.73473 44.99122 23397 ft 426 kts 123°
2026-04-20 18:11 25.72096 45.02039 23684 ft 427 kts 123°
2026-04-20 18:11 25.70716 45.04962 23893 ft 429 kts 123°
2026-04-20 18:11 25.69334 45.07892 24185 ft 429 kts 123°
2026-04-20 18:11 25.67951 45.10821 24454 ft 430 kts 123°
2026-04-20 18:12 25.66559 45.13763 24707 ft 430 kts 123°
2026-04-20 18:12 25.65174 45.16687 24960 ft 430 kts 123°
2026-04-20 18:12 25.63777 45.19638 25210 ft 431 kts 123°
2026-04-20 18:12 25.62400 45.22545 25485 ft 430 kts 123°
2026-04-20 18:13 25.61011 45.25476 25770 ft 429 kts 123°
2026-04-20 18:13 25.59623 45.28398 26028 ft 429 kts 123°
2026-04-20 18:13 25.58247 45.31296 26370 ft 426 kts 123°
2026-04-20 18:13 25.56857 45.34231 26593 ft 427 kts 123°
2026-04-20 18:14 25.55484 45.37126 26778 ft 429 kts 123°
2026-04-20 18:14 25.54089 45.40064 26975 ft 430 kts 123°
2026-04-20 18:14 25.52700 45.42985 27186 ft 430 kts 123°
2026-04-20 18:14 25.51313 45.45897 27422 ft 430 kts 123°
2026-04-20 18:15 25.49919 45.48824 27594 ft 432 kts 123°
2026-04-20 18:15 25.48515 45.51774 27726 ft 434 kts 123°
2026-04-20 18:15 25.47099 45.54752 27894 ft 435 kts 123°
2026-04-20 18:15 25.45694 45.57711 28073 ft 436 kts 123°
2026-04-20 18:16 25.44281 45.60680 28201 ft 438 kts 123°
2026-04-20 18:16 25.42872 45.63636 28196 ft 437 kts 123°
2026-04-20 18:16 25.40039 45.69587 28195 ft 438 kts 123°
2026-04-20 18:17 25.37183 45.75565 28105 ft 437 kts 122°
2026-04-20 18:17 25.35972 45.78679 27366 ft 448 kts 109°
2026-04-20 18:17 25.35498 45.82082 26321 ft 459 kts 95°
2026-04-20 18:18 25.35436 45.85585 25431 ft 460 kts 91°
2026-04-20 18:18 25.35434 45.89118 24483 ft 461 kts 91°
2026-04-20 18:18 25.35422 45.92621 23492 ft 462 kts 92°
2026-04-20 18:18 25.35384 45.96161 22488 ft 463 kts 92°
2026-04-20 18:19 25.35336 45.99703 21528 ft 462 kts 92°
2026-04-20 18:19 25.35278 46.03240 20529 ft 462 kts 93°
2026-04-20 18:19 25.35209 46.06758 19543 ft 460 kts 94°
2026-04-20 18:19 25.35180 46.10284 18559 ft 459 kts 91°
2026-04-20 18:20 25.35611 46.13752 17413 ft 465 kts 76°
2026-04-20 18:20 25.36915 46.16983 16413 ft 464 kts 62°
2026-04-20 18:20 25.38481 46.20056 15722 ft 452 kts 61°
2026-04-20 18:20 25.40030 46.23005 15122 ft 438 kts 61°
2026-04-20 18:21 25.41536 46.25846 14666 ft 423 kts 61°
2026-04-20 18:21 25.43021 46.28634 13961 ft 409 kts 61°
2026-04-20 18:21 25.44415 46.31262 13308 ft 393 kts 62°
2026-04-20 18:21 25.45710 46.33844 12612 ft 379 kts 70°
2026-04-20 18:22 25.46222 46.36614 11906 ft 356 kts 97°
2026-04-20 18:22 25.45615 46.39126 11293 ft 329 kts 126°
2026-04-20 18:22 25.44124 46.40854 10760 ft 301 kts 155°
2026-04-20 18:22 25.42223 46.41426 10285 ft 280 kts 182°
2026-04-20 18:23 25.40299 46.41329 9901 ft 272 kts 178°
2026-04-20 18:23 25.38467 46.41720 9548 ft 267 kts 163°
2026-04-20 18:23 25.36753 46.42484 9164 ft 261 kts 157°
2026-04-20 18:23 25.35159 46.43363 8860 ft 251 kts 154°
2026-04-20 18:24 25.33667 46.44256 8631 ft 241 kts 153°
2026-04-20 18:24 25.32221 46.45153 8389 ft 234 kts 152°
2026-04-20 18:24 25.30804 46.46042 8126 ft 234 kts 152°
2026-04-20 18:24 25.29394 46.46931 7865 ft 233 kts 151°
2026-04-20 18:25 25.28041 46.47789 7852 ft 213 kts 151°
2026-04-20 18:25 25.26807 46.48629 7725 ft 199 kts 146°
2026-04-20 18:25 25.25752 46.49522 7562 ft 188 kts 140°
2026-04-20 18:25 25.24791 46.50464 7393 ft 177 kts 138°
2026-04-20 18:26 25.23914 46.51333 7202 ft 169 kts 137°
2026-04-20 18:26 25.23028 46.52208 6888 ft 168 kts 136°
2026-04-20 18:26 25.22179 46.53043 6709 ft 158 kts 136°
2026-04-20 18:26 25.21388 46.53888 6681 ft 159 kts 131°
2026-04-20 18:27 25.20647 46.54820 6620 ft 164 kts 129°
2026-04-20 18:27 25.19858 46.55740 6570 ft 164 kts 135°
2026-04-20 18:27 25.18967 46.56542 6522 ft 164 kts 141°
2026-04-20 18:27 25.18023 46.57245 6320 ft 163 kts 143°
2026-04-20 18:28 25.17058 46.57904 6115 ft 163 kts 144°
2026-04-20 18:28 25.16083 46.58548 5914 ft 162 kts 145°
2026-04-20 18:28 25.15113 46.59175 5711 ft 162 kts 144°
2026-04-20 18:28 25.14140 46.59797 5510 ft 161 kts 144°
2026-04-20 18:29 25.13157 46.60419 5313 ft 160 kts 144°
2026-04-20 18:29 25.12193 46.61028 5110 ft 160 kts 143°
2026-04-20 18:29 25.11234 46.61634 4910 ft 159 kts 144°
2026-04-20 18:29 25.10264 46.62246 4710 ft 159 kts 143°
2026-04-20 18:30 25.09308 46.62847 4513 ft 158 kts 142°
2026-04-20 18:30 25.08361 46.63444 4300 ft 157 kts 142°
2026-04-20 18:30 25.07417 46.64038 4110 ft 157 kts 142°
2026-04-20 18:30 25.06462 46.64638 3912 ft 156 kts 141°
2026-04-20 18:31 25.05516 46.65236 3708 ft 155 kts 141°
2026-04-20 18:31 25.04582 46.65835 3520 ft 155 kts 140°
2026-04-20 18:31 25.03656 46.66426 3331 ft 155 kts 141°
2026-04-20 18:31 25.02712 46.67023 3131 ft 156 kts 141°
2026-04-20 18:32 25.01757 46.67627 2939 ft 157 kts 141°
2026-04-20 18:32 25.00820 46.68219 2740 ft 156 kts 143°
2026-04-20 18:32 24.99875 46.68814 2539 ft 156 kts 143°
2026-04-20 18:32 24.98925 46.69414 2331 ft 156 kts 144°
2026-04-20 18:33 24.97981 46.70007 2139 ft 155 kts 144°
2026-04-20 18:33 24.97057 46.70600 2040 ft 140 kts 153°
2026-04-20 18:33 24.96610 46.70882 2038 ft 38 kts 149°
2026-04-20 18:33 24.96428 46.71004 2039 ft 21 kts 152°
2026-04-20 18:34 24.96271 46.71099 2038 ft 27 kts 151°
2026-04-20 18:34 24.96074 46.71222 2036 ft 37 kts 151°
2026-04-20 18:34 24.95821 46.71378 2034 ft 43 kts 150°
2026-04-20 18:34 24.95553 46.71549 2029 ft 44 kts 151°
2026-04-20 18:35 24.95287 46.71717 2026 ft 42 kts 151°
2026-04-20 18:35 24.95041 46.71872 2026 ft 37 kts 151°
2026-04-20 18:35 24.94820 46.72013 2025 ft 33 kts 152°